Dades meteomassalio
Diari Summary for Febrer 20, 2018 Units:  Metric    English   Both
« Previous Day
Next Day »
Diari Semanal Mensual Anual Personalitzat
  Maxima: Minima: Mijana:
Temperatura: -17.8 °C -13.4 °C -11.6 °C
Rosada: -17.8 °C -16.1 °C -14.4 °C
Humitat: Humidity % 57 % 71 %
Velocitat del vent: 0 km/h 20.9 km/h 58.9 km/h
Racha vent: 0 km/h - -
Vent:- - NW
Pressio: 0 hPa 34361.1 hPa -
Pluja: 0 mm    
Historical Graphs
 
 
Tabular Data for Febrer 20, 2018
Time Temperature Dew Point Pressure Wind Wind Speed Wind Gust Humidity Rainfall Rate (Hourly) solar Conditions
-17.8 °C -17.8 °C 0 hPa Calm     Humidity % 0 mm SolarRadiationWatts/m^2 W/m2 Conditions
00:00 -11.6 °C -14 °C 34476.3 hPa NW 32.8 km/h 32.8 km/h 75 % 0 mm 0.0 W/m2 CLR
00:05 -11.6 °C -14 °C 34476.3 hPa NW 32.8 km/h 32.8 km/h 75 % 0 mm 0.0 W/m2 CLR
00:06 -11.6 °C -14 °C 34462.7 hPa NNW 31.1 km/h 31.1 km/h 75 % 0 mm 0.0 W/m2 CLR
00:11 -11.6 °C -14 °C 34462.7 hPa NNW 32.8 km/h 32.8 km/h 75 % 0 mm 0.0 W/m2 CLR
00:16 -11.6 °C -14 °C 34476.3 hPa NW 41.7 km/h 41.7 km/h 75 % 0 mm 0.0 W/m2 CLR
00:21 -11.6 °C -14 °C 34476.3 hPa NW 32.8 km/h 32.8 km/h 75 % 0 mm 0.0 W/m2 CLR
00:26 -11.6 °C -14 °C 34476.3 hPa NNW 32.8 km/h 32.8 km/h 75 % 0 mm 0.0 W/m2 CLR
00:31 -11.6 °C -14 °C 34462.7 hPa NW 38.8 km/h 38.8 km/h 75 % 0 mm 0.0 W/m2 CLR
00:36 -11.6 °C -14 °C 34462.7 hPa NW 26.9 km/h 26.9 km/h 75 % 0 mm 0.0 W/m2 CLR
00:41 -11.6 °C -14 °C 34452.6 hPa NW 36.2 km/h 36.2 km/h 75 % 0 mm 0.0 W/m2 CLR
00:46 -11.6 °C -14 °C 34462.7 hPa NW 29.8 km/h 29.8 km/h 75 % 0 mm 0.0 W/m2 CLR
00:51 -11.6 °C -14 °C 34462.7 hPa NW 29.8 km/h 29.8 km/h 75 % 0 mm 0.0 W/m2 CLR
00:56 -11.6 °C -14 °C 34462.7 hPa NW 38.8 km/h 38.8 km/h 75 % 0 mm 0.0 W/m2 CLR
01:01 -11.6 °C -13.8 °C 34462.7 hPa NW 26.9 km/h 26.9 km/h 76 % 0 mm 0.0 W/m2 CLR
01:06 -11.6 °C -14 °C 34452.6 hPa WNW 29.8 km/h 29.8 km/h 75 % 0 mm 0.0 W/m2 CLR
01:11 -11.6 °C -14 °C 34452.6 hPa NW 44.7 km/h 44.7 km/h 75 % 0 mm 0.0 W/m2 CLR
01:16 -11.6 °C -13.8 °C 34452.6 hPa NW 35.7 km/h 35.7 km/h 76 % 0 mm 0.0 W/m2 CLR
01:17 -11.6 °C -13.8 °C 34452.6 hPa NW 23.8 km/h 23.8 km/h 76 % 0 mm 0.0 W/m2 CLR
01:22 -11.6 °C -13.8 °C 34452.6 hPa NW 29.8 km/h 29.8 km/h 76 % 0 mm 0.0 W/m2 CLR
01:27 -11.6 °C -14 °C 34452.6 hPa NW 35.7 km/h 35.7 km/h 75 % 0 mm 0.0 W/m2 CLR
01:32 -11.6 °C -13.8 °C 34452.6 hPa NW 41.7 km/h 41.7 km/h 76 % 0 mm 0.0 W/m2 CLR
01:37 -11.6 °C -13.8 °C 34452.6 hPa NNW 36.2 km/h 36.2 km/h 76 % 0 mm 0.0 W/m2 CLR
01:42 -11.6 °C -13.8 °C 34452.6 hPa NW 41.7 km/h 41.7 km/h 76 % 0 mm 0.0 W/m2 CLR
01:47 -11.6 °C -13.8 °C 34452.6 hPa NNW 35.7 km/h 35.7 km/h 76 % 0 mm 0.0 W/m2 CLR
01:52 -11.6 °C -13.8 °C 34452.6 hPa NW 44.7 km/h 44.7 km/h 76 % 0 mm 0.0 W/m2 CLR
01:57 -11.9 °C -14.2 °C 34442.4 hPa NNW 41.7 km/h 41.7 km/h 76 % 0 mm 0.0 W/m2 CLR
02:02 -11.9 °C -14.2 °C 34442.4 hPa NNW 44.7 km/h 44.7 km/h 76 % 0 mm 0.0 W/m2 CLR
02:07 -11.9 °C -14.2 °C 34442.4 hPa NW 31.1 km/h 31.1 km/h 76 % 0 mm 0.0 W/m2 CLR
02:12 -11.9 °C -14.2 °C 34442.4 hPa WNW 29.8 km/h 29.8 km/h 76 % 0 mm 0.0 W/m2 CLR
02:17 -11.9 °C -14.2 °C 34442.4 hPa NNW 38.8 km/h 38.8 km/h 76 % 0 mm 0.0 W/m2 CLR
02:22 -11.6 °C -13.8 °C 34442.4 hPa NW 46.7 km/h 46.7 km/h 76 % 0 mm 0.0 W/m2 CLR
02:27 -11.9 °C -14.2 °C 34442.4 hPa NW 35.7 km/h 35.7 km/h 76 % 0 mm 0.0 W/m2 CLR
02:32 -11.9 °C -14.2 °C 34442.4 hPa NW 20.9 km/h 20.9 km/h 76 % 0 mm 0.0 W/m2 CLR
02:37 -11.6 °C -13.8 °C 34442.4 hPa NW 38.8 km/h 38.8 km/h 76 % 0 mm 0.0 W/m2 CLR
02:42 -11.6 °C -13.8 °C 34442.4 hPa NW 35.7 km/h 35.7 km/h 76 % 0 mm 0.0 W/m2 CLR
02:47 -11.6 °C -13.8 °C 34442.4 hPa NNW 38.8 km/h 38.8 km/h 76 % 0 mm 0.0 W/m2 CLR
02:52 -11.6 °C -13.8 °C 34442.4 hPa NW 35.7 km/h 35.7 km/h 76 % 0 mm 0.0 W/m2 CLR
02:57 -11.9 °C -14.2 °C 34442.4 hPa NW 26.9 km/h 26.9 km/h 76 % 0 mm 0.0 W/m2 CLR
03:02 -11.9 °C -14.2 °C 34442.4 hPa NNW 47.6 km/h 47.6 km/h 76 % 0 mm 0.0 W/m2 CLR
03:07 -11.9 °C -14.2 °C 34442.4 hPa NW 26.9 km/h 26.9 km/h 76 % 0 mm 0.0 W/m2 CLR
03:12 -11.9 °C -14.2 °C 34442.4 hPa NW 29.8 km/h 29.8 km/h 76 % 0 mm 0.0 W/m2 CLR
03:17 -11.9 °C -14.2 °C 34442.4 hPa NW 29.8 km/h 29.8 km/h 76 % 0 mm 0.0 W/m2 CLR
03:22 -11.9 °C -14.2 °C 34442.4 hPa NW 50.7 km/h 50.7 km/h 76 % 0 mm 0.0 W/m2 CLR
03:27 -11.9 °C -14.1 °C 34442.4 hPa NW 53.6 km/h 53.6 km/h 77 % 0 mm 0.0 W/m2 CLR
03:32 -11.9 °C -14.1 °C 34428.8 hPa NW 35.7 km/h 35.7 km/h 77 % 0 mm 0.0 W/m2 CLR
03:37 -11.9 °C -14.1 °C 34428.8 hPa NW 47.6 km/h 47.6 km/h 77 % 0 mm 0.0 W/m2 CLR
03:42 -11.9 °C -14.1 °C 34428.8 hPa NW 46.7 km/h 46.7 km/h 77 % 0 mm 0.0 W/m2 CLR
03:47 -11.9 °C -14.1 °C 34428.8 hPa NNW 56.6 km/h 56.6 km/h 77 % 0 mm 0.0 W/m2 CLR
04:04 -11.9 °C -13.9 °C 34418.7 hPa North 54.4 km/h 54.4 km/h 78 % 0 mm 0.0 W/m2 CLR
04:09 -11.9 °C -13.9 °C 34418.7 hPa North 68.6 km/h 68.6 km/h 78 % 0 mm 0.0 W/m2 CLR
04:14 -11.9 °C -13.9 °C 34418.7 hPa NNW 51.8 km/h 51.8 km/h 78 % 0 mm 0.0 W/m2 CLR
04:19 -11.9 °C -13.8 °C 34418.7 hPa NW 65.5 km/h 65.5 km/h 79 % 0 mm 0.0 W/m2 CLR
04:24 -11.9 °C -13.8 °C 34418.7 hPa North 57 km/h 57 km/h 79 % 0 mm 0.0 W/m2 CLR
04:30 -11.9 °C -13.8 °C 34418.7 hPa NW 50.7 km/h 50.7 km/h 79 % 0 mm 0.0 W/m2 CLR
04:35 -11.9 °C -13.8 °C 34418.7 hPa NW 47.6 km/h 47.6 km/h 79 % 0 mm 0.0 W/m2 CLR
04:40 -11.9 °C -13.8 °C 34428.8 hPa North 50.7 km/h 50.7 km/h 79 % 0 mm 0.0 W/m2 CLR
04:45 -11.9 °C -13.8 °C 34418.7 hPa NNW 47.6 km/h 47.6 km/h 80 % 0 mm 0.0 W/m2 CLR
04:50 -11.9 °C -13.8 °C 34418.7 hPa NNW 20.9 km/h 20.9 km/h 80 % 0 mm 0.0 W/m2 CLR
04:55 -11.9 °C -13.8 °C 34418.7 hPa NW 53.6 km/h 53.6 km/h 80 % 0 mm 0.0 W/m2 CLR
05:00 -11.9 °C -13.8 °C 34418.7 hPa North 41.4 km/h 41.4 km/h 80 % 0 mm 0.0 W/m2 CLR
05:05 -11.9 °C -13.8 °C 34418.7 hPa NNW 44.7 km/h 44.7 km/h 80 % 0 mm 0.0 W/m2 CLR
05:10 -11.9 °C -13.8 °C 34418.7 hPa NNW 41.7 km/h 41.7 km/h 80 % 0 mm 0.0 W/m2 CLR
05:15 -12.2 °C -14.1 °C 34418.7 hPa NW 44.7 km/h 44.7 km/h 80 % 0 mm 0.0 W/m2 CLR
05:20 -12.2 °C -14.1 °C 34418.7 hPa NNW 41.4 km/h 41.4 km/h 80 % 0 mm 0.0 W/m2 CLR
05:25 -12.2 °C -13.9 °C 34418.7 hPa NW 41.7 km/h 41.7 km/h 81 % 0 mm 0.0 W/m2 CLR
05:30 -12.2 °C -13.9 °C 34418.7 hPa NNW 44.7 km/h 44.7 km/h 81 % 0 mm 0.0 W/m2 CLR
05:35 -12.2 °C -13.9 °C 34418.7 hPa NW 47.6 km/h 47.6 km/h 81 % 0 mm 0.0 W/m2 CLR
05:40 -12.2 °C -13.9 °C 34418.7 hPa NNW 44.7 km/h 44.7 km/h 81 % 0 mm 0.0 W/m2 CLR
05:45 -12.2 °C -13.9 °C 34418.7 hPa NW 44.1 km/h 44.1 km/h 81 % 0 mm 0.0 W/m2 CLR
05:50 -12.2 °C -14.1 °C 34428.8 hPa NW 44.7 km/h 44.7 km/h 80 % 0 mm 0.0 W/m2 CLR
05:55 -12.2 °C -14.1 °C 34428.8 hPa North 41.4 km/h 41.4 km/h 80 % 0 mm 0.0 W/m2 CLR
06:00 -12.2 °C -14.1 °C 34418.7 hPa NNW 56.6 km/h 56.6 km/h 80 % 0 mm 0.0 W/m2 CLR
06:05 -11.9 °C -13.8 °C 34428.8 hPa North 50.7 km/h 50.7 km/h 80 % 0 mm 0.0 W/m2 CLR
06:10 -12.2 °C -14.1 °C 34418.7 hPa NNW 53.6 km/h 53.6 km/h 80 % 0 mm 0.0 W/m2 CLR
06:15 -12.2 °C -14.1 °C 34418.7 hPa NNW 47.6 km/h 47.6 km/h 80 % 0 mm 0.0 W/m2 CLR
06:20 -12.2 °C -14.1 °C 34418.7 hPa North 44.7 km/h 44.7 km/h 80 % 0 mm 0.0 W/m2 CLR
06:25 -12.2 °C -13.9 °C 34418.7 hPa NW 44.7 km/h 44.7 km/h 81 % 0 mm 0.0 W/m2 CLR
06:30 -12.2 °C -13.9 °C 34418.7 hPa NW 38.8 km/h 38.8 km/h 81 % 0 mm 0.0 W/m2 CLR
06:35 -12.2 °C -13.9 °C 34418.7 hPa NW 35.7 km/h 35.7 km/h 81 % 0 mm 0.0 W/m2 CLR
06:40 -12.2 °C -13.9 °C 34418.7 hPa WNW 56.6 km/h 56.6 km/h 81 % 0 mm 0.0 W/m2 CLR
06:45 -12.2 °C -14.1 °C 34418.7 hPa North 29.8 km/h 29.8 km/h 80 % 0 mm 0.0 W/m2 CLR
06:50 -12.2 °C -13.9 °C 34418.7 hPa NW 41.7 km/h 41.7 km/h 81 % 0 mm 0.0 W/m2 CLR
06:55 -12.2 °C -13.9 °C 34418.7 hPa NW 41.7 km/h 41.7 km/h 81 % 0 mm 0.0 W/m2 CLR
07:00 -12.2 °C -13.9 °C 34418.7 hPa NW 47.6 km/h 47.6 km/h 81 % 0 mm 0.0 W/m2 CLR
07:05 -12.2 °C -13.9 °C 34418.7 hPa NW 50.7 km/h 50.7 km/h 81 % 0 mm 0.0 W/m2 CLR
07:10 -12.2 °C -13.9 °C 34418.7 hPa NNW 32.8 km/h 32.8 km/h 81 % 0 mm 0.0 W/m2 CLR
07:15 -12.2 °C -13.9 °C 34418.7 hPa NW 50.7 km/h 50.7 km/h 81 % 0 mm 0.0 W/m2 CLR
07:20 -12.2 °C -13.9 °C 34418.7 hPa NW 47.6 km/h 47.6 km/h 81 % 0 mm 0.0 W/m2 CLR
07:25 -12.2 °C -13.9 °C 34418.7 hPa NNW 49.2 km/h 49.2 km/h 81 % 0 mm 0.0 W/m2 CLR
07:30 -12.2 °C -13.9 °C 34418.7 hPa NNW 46.7 km/h 46.7 km/h 81 % 0 mm 0.0 W/m2 CLR
07:35 -12.2 °C -13.9 °C 34418.7 hPa NNW 53.6 km/h 53.6 km/h 81 % 0 mm 0.0 W/m2 CLR
07:40 -12.2 °C -13.9 °C 34418.7 hPa NW 53.6 km/h 53.6 km/h 81 % 0 mm 0.0 W/m2 OVC
07:45 -12.2 °C -13.9 °C 34418.7 hPa NNW 53.6 km/h 53.6 km/h 81 % 0 mm 5.0 W/m2 OVC
07:50 -12.2 °C -13.9 °C 34418.7 hPa NW 53.6 km/h 53.6 km/h 81 % 0 mm 9.0 W/m2 OVC
07:55 -12.2 °C -13.9 °C 34428.8 hPa NW 41.7 km/h 41.7 km/h 81 % 0 mm 16.0 W/m2 BKN
08:00 -12.2 °C -13.9 °C 34428.8 hPa NNW 38.8 km/h 38.8 km/h 81 % 0 mm 23.0 W/m2 BKN
08:05 -11.9 °C -13.8 °C 34428.8 hPa NNW 41.7 km/h 41.7 km/h 80 % 0 mm 28.0 W/m2 BKN
08:10 -11.9 °C -13.8 °C 34428.8 hPa NW 47.6 km/h 47.6 km/h 80 % 0 mm 33.0 W/m2 BKN
08:15 -11.9 °C -13.8 °C 34428.8 hPa NW 41.7 km/h 41.7 km/h 79 % 0 mm 37.0 W/m2 BKN
08:20 -11.9 °C -13.8 °C 34428.8 hPa NW 44.1 km/h 44.1 km/h 79 % 0 mm 37.0 W/m2 BKN
08:25 -11.9 °C -13.8 °C 34428.8 hPa NW 50.7 km/h 50.7 km/h 79 % 0 mm 35.0 W/m2 BKN
08:30 -11.9 °C -13.8 °C 34428.8 hPa NW 53.6 km/h 53.6 km/h 79 % 0 mm 44.0 W/m2 BKN
08:35 -11.9 °C -13.8 °C 34428.8 hPa WNW 44.7 km/h 44.7 km/h 79 % 0 mm 42.0 W/m2 BKN
08:40 -11.9 °C -13.9 °C 34428.8 hPa NNW 38.8 km/h 38.8 km/h 78 % 0 mm 46.0 W/m2 SCT
08:45 -11.9 °C -13.9 °C 34428.8 hPa WNW 50.7 km/h 50.7 km/h 78 % 0 mm 62.0 W/m2 SCT
08:50 -11.9 °C -13.9 °C 34428.8 hPa NW 49.2 km/h 49.2 km/h 78 % 0 mm 70.0 W/m2 SCT
08:55 -11.9 °C -13.9 °C 34428.8 hPa NW 59.5 km/h 59.5 km/h 78 % 0 mm 84.0 W/m2 FEW
09:00 -11.6 °C -13.8 °C 34442.4 hPa NNW 44.7 km/h 44.7 km/h 77 % 0 mm 109.0 W/m2 FEW
09:05 -11.6 °C -13.8 °C 34442.4 hPa NNW 44.7 km/h 44.7 km/h 77 % 0 mm 148.0 W/m2 CLR
09:10 -11.6 °C -13.8 °C 34442.4 hPa NW 47.6 km/h 47.6 km/h 77 % 0 mm 142.0 W/m2 CLR
09:15 -11.6 °C -13.8 °C 34442.4 hPa NNW 44.7 km/h 44.7 km/h 76 % 0 mm 169.0 W/m2 CLR
09:20 -11.3 °C -13.7 °C 34442.4 hPa NW 54.4 km/h 54.4 km/h 75 % 0 mm 272.0 W/m2 CLR
09:25 -11.3 °C -13.7 °C 34442.4 hPa NW 65.5 km/h 65.5 km/h 75 % 0 mm 141.0 W/m2 CLR
09:30 -11.3 °C -13.7 °C 34452.6 hPa NNW 62.6 km/h 62.6 km/h 75 % 0 mm 111.0 W/m2 CLR
09:35 -11.6 °C -14.1 °C 34452.6 hPa NW 38.8 km/h 38.8 km/h 74 % 0 mm 127.0 W/m2 CLR
09:41 -11.3 °C -13.8 °C 34452.6 hPa NW 50.7 km/h 50.7 km/h 74 % 0 mm 153.0 W/m2 CLR
09:45 -11.3 °C -13.8 °C 34452.6 hPa WNW 38.8 km/h 38.8 km/h 74 % 0 mm 158.0 W/m2 CLR
09:50 -11.3 °C -13.8 °C 34452.6 hPa NNW 44.7 km/h 44.7 km/h 74 % 0 mm 185.0 W/m2 CLR
09:56 -11.3 °C -13.9 °C 34452.6 hPa NNW 41.7 km/h 41.7 km/h 73 % 0 mm 246.0 W/m2 CLR
10:01 -11 °C -13.6 °C 34452.6 hPa NW 38.8 km/h 38.8 km/h 73 % 0 mm 209.0 W/m2 CLR
10:06 -11 °C -13.6 °C 34452.6 hPa NW 41.7 km/h 41.7 km/h 73 % 0 mm 204.0 W/m2 CLR
10:11 -11 °C -13.7 °C 34452.6 hPa NNW 83.4 km/h 83.4 km/h 72 % 0 mm 211.0 W/m2 CLR
10:16 -11 °C -13.6 °C 34452.6 hPa NNW 51.8 km/h 51.8 km/h 73 % 0 mm 346.0 W/m2 CLR
10:21 -10.7 °C -13.4 °C 34452.6 hPa North 57 km/h 57 km/h 72 % 0 mm 192.0 W/m2 CLR
10:26 -11 °C -13.7 °C 34452.6 hPa NNW 56.6 km/h 56.6 km/h 72 % 0 mm 195.0 W/m2 CLR
10:31 -11 °C -13.7 °C 34452.6 hPa North 68.6 km/h 68.6 km/h 72 % 0 mm 169.0 W/m2 CLR
10:36 -11 °C -13.7 °C 34452.6 hPa NNW 69.8 km/h 69.8 km/h 72 % 0 mm 135.0 W/m2 CLR
10:41 -11 °C -13.7 °C 34452.6 hPa NNW 57 km/h 57 km/h 72 % 0 mm 185.0 W/m2 CLR
10:46 -11 °C -13.7 °C 34452.6 hPa North 59.5 km/h 59.5 km/h 72 % 0 mm 172.0 W/m2 CLR
10:51 -11 °C -13.8 °C 34452.6 hPa NNW 68.6 km/h 68.6 km/h 71 % 0 mm 221.0 W/m2 CLR
10:56 -11 °C -13.8 °C 34452.6 hPa NW 50.7 km/h 50.7 km/h 71 % 0 mm 179.0 W/m2 CLR
11:01 -10.7 °C -13.7 °C 34452.6 hPa NNW 38.8 km/h 38.8 km/h 70 % 0 mm 190.0 W/m2 CLR
11:06 -10.7 °C -13.7 °C 34452.6 hPa NNW 44.7 km/h 44.7 km/h 70 % 0 mm 190.0 W/m2 CLR
11:11 -10.7 °C -13.8 °C 34462.7 hPa North 77.4 km/h 77.4 km/h 69 % 0 mm 206.0 W/m2 CLR
11:16 -10.7 °C -13.7 °C 34462.7 hPa NNE 68.6 km/h 68.6 km/h 70 % 0 mm 178.0 W/m2 CLR
11:21 -10.7 °C -13.8 °C 34452.6 hPa North 68.6 km/h 68.6 km/h 69 % 0 mm 255.0 W/m2 CLR
11:26 -10.7 °C -13.8 °C 34452.6 hPa NNW 68.6 km/h 68.6 km/h 69 % 0 mm 211.0 W/m2 CLR
11:31 -10.7 °C -13.9 °C 34462.7 hPa North 65.5 km/h 65.5 km/h 68 % 0 mm 272.0 W/m2 CLR
11:36 -10.7 °C -13.9 °C 34452.6 hPa NNW 68.6 km/h 68.6 km/h 68 % 0 mm 241.0 W/m2 CLR
11:41 -10.7 °C -13.9 °C 34452.6 hPa NNW 77.4 km/h 77.4 km/h 68 % 0 mm 227.0 W/m2 CLR
11:46 -10.7 °C -13.9 °C 34452.6 hPa North 74.5 km/h 74.5 km/h 68 % 0 mm 264.0 W/m2 CLR
11:51 -10.7 °C -13.9 °C 34452.6 hPa NNW 41.7 km/h 41.7 km/h 68 % 0 mm 272.0 W/m2 CLR
11:56 -10.7 °C -14 °C 34452.6 hPa NNW 68.6 km/h 68.6 km/h 67 % 0 mm 243.0 W/m2 CLR
12:01 -10.7 °C -14 °C 34442.4 hPa North 65.5 km/h 65.5 km/h 67 % 0 mm 258.0 W/m2 CLR
12:06 -10.7 °C -14 °C 34442.4 hPa NNW 86.4 km/h 86.4 km/h 67 % 0 mm 229.0 W/m2 CLR
12:11 -10.7 °C -13.9 °C 34442.4 hPa North 38.8 km/h 38.8 km/h 68 % 0 mm 253.0 W/m2 CLR
12:16 -10.7 °C -13.9 °C 34452.6 hPa NNW 50.7 km/h 50.7 km/h 68 % 0 mm 308.0 W/m2 CLR
12:21 -10.7 °C -14 °C 34452.6 hPa North 89.3 km/h 89.3 km/h 67 % 0 mm 262.0 W/m2 CLR
12:26 -10.7 °C -14 °C 34442.4 hPa North 80.5 km/h 80.5 km/h 67 % 0 mm 274.0 W/m2 CLR
12:31 -10.4 °C -13.7 °C 34442.4 hPa North 65.5 km/h 65.5 km/h 67 % 0 mm 320.0 W/m2 CLR
12:36 -10.4 °C -13.8 °C 34442.4 hPa NNW 89.3 km/h 89.3 km/h 66 % 0 mm 392.0 W/m2 CLR
12:41 -10.4 °C -13.8 °C 34442.4 hPa NNW 71.5 km/h 71.5 km/h 66 % 0 mm 290.0 W/m2 CLR
12:46 -10.7 °C -14.1 °C 34442.4 hPa NNW 80.5 km/h 80.5 km/h 66 % 0 mm 283.0 W/m2 CLR
12:51 -10.7 °C -14 °C 34428.8 hPa North 50.7 km/h 50.7 km/h 67 % 0 mm 320.0 W/m2 CLR
12:56 -10.4 °C -13.8 °C 34428.8 hPa NNW 65.5 km/h 65.5 km/h 66 % 0 mm 336.0 W/m2 CLR
13:01 -10.4 °C -13.9 °C 34428.8 hPa North 82.9 km/h 82.9 km/h 65 % 0 mm 301.0 W/m2 CLR
13:06 -10.4 °C -13.9 °C 34428.8 hPa North 83.4 km/h 83.4 km/h 65 % 0 mm 330.0 W/m2 CLR
13:11 -10.4 °C -13.9 °C 34428.8 hPa North 68.6 km/h 68.6 km/h 65 % 0 mm 287.0 W/m2 CLR
13:16 -10.4 °C -13.9 °C 34428.8 hPa NNW 77.4 km/h 77.4 km/h 65 % 0 mm 339.0 W/m2 CLR
13:21 -10.4 °C -13.9 °C 34418.7 hPa NNW 54.4 km/h 54.4 km/h 65 % 0 mm 345.0 W/m2 CLR
13:26 -10.4 °C -13.9 °C 34428.8 hPa North 71.5 km/h 71.5 km/h 65 % 0 mm 299.0 W/m2 CLR
13:31 -10.4 °C -14.1 °C 34418.7 hPa NNW 53.6 km/h 53.6 km/h 64 % 0 mm 287.0 W/m2 CLR
13:36 -10.4 °C -14.2 °C 34418.7 hPa WNW 68.6 km/h 68.6 km/h 63 % 0 mm 373.0 W/m2 CLR
13:41 -10.1 °C -13.8 °C 34418.7 hPa NNW 49.2 km/h 49.2 km/h 64 % 0 mm 367.0 W/m2 CLR
13:46 -10.1 °C -14.2 °C 34418.7 hPa NNW 89.3 km/h 89.3 km/h 61 % 0 mm 297.0 W/m2 CLR
13:51 -10.1 °C -14.2 °C 34418.7 hPa North 86.4 km/h 86.4 km/h 61 % 0 mm 316.0 W/m2 CLR
13:56 -10.1 °C -14.2 °C 34418.7 hPa North 83.4 km/h 83.4 km/h 61 % 0 mm 311.0 W/m2 CLR
14:01 -10.1 °C -14.1 °C 34418.7 hPa North 77.4 km/h 77.4 km/h 62 % 0 mm 295.0 W/m2 CLR
14:06 -10.1 °C -14.2 °C 34405.1 hPa NNW 83.4 km/h 83.4 km/h 61 % 0 mm 309.0 W/m2 CLR
14:11 -10.1 °C -14.2 °C 34405.1 hPa NNW 80.5 km/h 80.5 km/h 61 % 0 mm 345.0 W/m2 CLR
14:16 -10.1 °C -14.1 °C 34405.1 hPa NNW 77.4 km/h 77.4 km/h 62 % 0 mm 385.0 W/m2 CLR
14:21 -10.1 °C -14.1 °C 34395 hPa NW 50.7 km/h 50.7 km/h 62 % 0 mm 452.0 W/m2 CLR
14:26 -10.1 °C -14.1 °C 34395 hPa NNW 77.4 km/h 77.4 km/h 62 % 0 mm 343.0 W/m2 CLR
14:31 -10.1 °C -13.9 °C 34405.1 hPa NNW 65.5 km/h 65.5 km/h 63 % 0 mm 327.0 W/m2 CLR
14:36 -10.1 °C -14.1 °C 34405.1 hPa North 83.4 km/h 83.4 km/h 62 % 0 mm 304.0 W/m2 CLR
14:41 -10.1 °C -14.1 °C 34395 hPa NNW 80.5 km/h 80.5 km/h 62 % 0 mm 294.0 W/m2 CLR
14:46 -10.1 °C -14.1 °C 34395 hPa North 68.6 km/h 68.6 km/h 62 % 0 mm 306.0 W/m2 CLR
14:51 -10.1 °C -14.2 °C 34395 hPa North 89.3 km/h 89.3 km/h 61 % 0 mm 297.0 W/m2 CLR
14:56 -10.1 °C -14.2 °C 34395 hPa North 86.4 km/h 86.4 km/h 61 % 0 mm 302.0 W/m2 CLR
15:01 -10.1 °C -14.1 °C 34395 hPa North 62.6 km/h 62.6 km/h 62 % 0 mm 352.0 W/m2 CLR
15:06 -10.1 °C -14.2 °C 34395 hPa North 101.2 km/h 101.2 km/h 61 % 0 mm 336.0 W/m2 CLR
15:11 -10.1 °C -14.2 °C 34384.8 hPa North 80.5 km/h 80.5 km/h 61 % 0 mm 323.0 W/m2 CLR
15:16 -10.1 °C -14.2 °C 34384.8 hPa NNW 77.4 km/h 77.4 km/h 61 % 0 mm 267.0 W/m2 CLR
15:21 -10.1 °C -14.2 °C 34384.8 hPa North 68.6 km/h 68.6 km/h 61 % 0 mm 325.0 W/m2 CLR
15:27 -10.1 °C -14.2 °C 34384.8 hPa NW 68.6 km/h 68.6 km/h 61 % 0 mm 316.0 W/m2 CLR
15:32 -10.1 °C -14.3 °C 34384.8 hPa North 75.2 km/h 75.2 km/h 60 % 0 mm 497.0 W/m2 CLR
15:37 -9.8 °C -14.2 °C 34384.8 hPa NNW 104.3 km/h 104.3 km/h 59 % 0 mm 209.0 W/m2 CLR
15:42 -10.1 °C -14.3 °C 34371.3 hPa NNW 74.5 km/h 74.5 km/h 60 % 0 mm 218.0 W/m2 CLR
15:47 -9.8 °C -14.2 °C 34384.8 hPa North 101.2 km/h 101.2 km/h 59 % 0 mm 557.0 W/m2 CLR
15:52 -9.4 °C -13.8 °C 34371.3 hPa NNW 71.5 km/h 71.5 km/h 59 % 0 mm 577.0 W/m2 CLR
15:57 -9.8 °C -14.3 °C 34371.3 hPa NNW 80.5 km/h 80.5 km/h 58 % 0 mm 188.0 W/m2 CLR
16:02 -10.1 °C -14.6 °C 34371.3 hPa North 80.5 km/h 80.5 km/h 58 % 0 mm 239.0 W/m2 CLR
16:07 -10.1 °C -14.4 °C 34371.3 hPa NW 57 km/h 57 km/h 59 % 0 mm 471.0 W/m2 CLR
16:12 -9.8 °C -14.2 °C 34371.3 hPa NNW 74.5 km/h 74.5 km/h 59 % 0 mm 142.0 W/m2 CLR
16:17 -10.1 °C -14.4 °C 34384.8 hPa NNW 86.4 km/h 86.4 km/h 59 % 0 mm 171.0 W/m2 CLR
16:22 -10.4 °C -14.7 °C 34371.3 hPa North 89.3 km/h 89.3 km/h 59 % 0 mm 74.0 W/m2 CLR
16:27 -10.1 °C -14.3 °C 34384.8 hPa NW 59.5 km/h 59.5 km/h 60 % 0 mm 357.0 W/m2 CLR
16:32 -10.1 °C -14.6 °C 34384.8 hPa NW 68.6 km/h 68.6 km/h 58 % 0 mm 376.0 W/m2 CLR
16:37 -10.1 °C -14.7 °C 34384.8 hPa North 82.9 km/h 82.9 km/h 57 % 0 mm 120.0 W/m2 CLR
16:42 -10.1 °C -14.6 °C 34371.3 hPa North 82.9 km/h 82.9 km/h 58 % 0 mm 79.0 W/m2 CLR
16:47 -10.1 °C -14.6 °C 34371.3 hPa NNW 68.6 km/h 68.6 km/h 58 % 0 mm 315.0 W/m2 CLR
16:52 -10.1 °C -14.6 °C 34371.3 hPa NW 98.3 km/h 98.3 km/h 58 % 0 mm 113.0 W/m2 CLR
16:57 -10.4 °C -14.6 °C 34384.8 hPa North 80.3 km/h 80.3 km/h 60 % 0 mm 63.0 W/m2 FEW
17:02 -10.7 °C -14.9 °C 34384.8 hPa NNW 44.7 km/h 44.7 km/h 60 % 0 mm 84.0 W/m2 FEW
17:07 -10.4 °C -14.6 °C 34384.8 hPa North 108.8 km/h 108.8 km/h 60 % 0 mm 241.0 W/m2 CLR
17:12 -10.7 °C -14.9 °C 34384.8 hPa North 74.5 km/h 74.5 km/h 60 % 0 mm 142.0 W/m2 CLR
17:17 -10.7 °C -14.9 °C 34384.8 hPa NNW 65.5 km/h 65.5 km/h 60 % 0 mm 47.0 W/m2 FEW
17:22 -10.7 °C -14.8 °C 34371.3 hPa North 62.6 km/h 62.6 km/h 61 % 0 mm 44.0 W/m2 SCT
17:27 -11 °C -15.1 °C 34384.8 hPa North 68.6 km/h 68.6 km/h 61 % 0 mm 47.0 W/m2 SCT
17:32 -11 °C -15.1 °C 34384.8 hPa North 59.5 km/h 59.5 km/h 61 % 0 mm 151.0 W/m2 FEW
17:37 -11 °C -15.1 °C 34384.8 hPa NW 50.7 km/h 50.7 km/h 61 % 0 mm 111.0 W/m2 FEW
17:47 -11 °C -14.9 °C 34384.8 hPa North 67.3 km/h 67.3 km/h 62 % 0 mm 26.0 W/m2 BKN
17:52 -11 °C -14.9 °C 34384.8 hPa NNW 68.6 km/h 68.6 km/h 62 % 0 mm 23.0 W/m2 BKN
17:57 -11 °C -15.1 °C 34384.8 hPa NNW 68.6 km/h 68.6 km/h 61 % 0 mm 28.0 W/m2 BKN
18:02 -11.3 °C -15.2 °C 34384.8 hPa North 89.3 km/h 89.3 km/h 62 % 0 mm 42.0 W/m2 BKN
18:07 -11.3 °C -15.2 °C 34384.8 hPa NNW 74.5 km/h 74.5 km/h 62 % 0 mm 26.0 W/m2 BKN
18:12 -11.3 °C -15.2 °C 34384.8 hPa North 86.4 km/h 86.4 km/h 62 % 0 mm 18.0 W/m2 BKN
18:17 -11.3 °C -15.2 °C 34384.8 hPa North 67.3 km/h 67.3 km/h 62 % 0 mm 14.0 W/m2 BKN
18:22 -11.6 °C -15.5 °C 34371.3 hPa North 80.5 km/h 80.5 km/h 62 % 0 mm 12.0 W/m2 BKN
18:27 -11.6 °C -15.5 °C 34371.3 hPa NNW 89.3 km/h 89.3 km/h 62 % 0 mm 11.0 W/m2 BKN
18:32 -11.6 °C -15.4 °C 34371.3 hPa North 101.2 km/h 101.2 km/h 63 % 0 mm 9.0 W/m2 BKN
18:37 -11.6 °C -15.4 °C 34384.8 hPa North 98.3 km/h 98.3 km/h 63 % 0 mm 7.0 W/m2 BKN
18:42 -11.6 °C -15.4 °C 34384.8 hPa NNW 95.3 km/h 95.3 km/h 63 % 0 mm 0.0 W/m2
18:47 -11.6 °C -15.4 °C 34384.8 hPa North 77.4 km/h 77.4 km/h 63 % 0 mm 0.0 W/m2 OVC
18:52 -11.6 °C -15.4 °C 34395 hPa North 68.6 km/h 68.6 km/h 63 % 0 mm 0.0 W/m2 CLR
18:57 -11.9 °C -15.7 °C 34395 hPa NNW 62.6 km/h 62.6 km/h 63 % 0 mm 0.0 W/m2 CLR
19:02 -11.9 °C -15.7 °C 34395 hPa NNW 72.6 km/h 72.6 km/h 63 % 0 mm 0.0 W/m2 CLR
19:07 -11.9 °C -15.6 °C 34395 hPa NNW 68.6 km/h 68.6 km/h 64 % 0 mm 0.0 W/m2 CLR
19:12 -11.9 °C -15.4 °C 34395 hPa NW 74.5 km/h 74.5 km/h 65 % 0 mm 0.0 W/m2 CLR
19:17 -11.9 °C -15.4 °C 34395 hPa NNW 68.6 km/h 68.6 km/h 65 % 0 mm 0.0 W/m2 CLR
19:22 -11.9 °C -15.4 °C 34405.1 hPa NNW 71.5 km/h 71.5 km/h 65 % 0 mm 0.0 W/m2 CLR
19:27 -12.2 °C -15.6 °C 34395 hPa NNW 72.6 km/h 72.6 km/h 66 % 0 mm 0.0 W/m2 CLR
19:32 -12.2 °C -15.6 °C 34395 hPa NNW 59.5 km/h 59.5 km/h 66 % 0 mm 0.0 W/m2 CLR
19:38 -12.2 °C -15.6 °C 34405.1 hPa NW 68.6 km/h 68.6 km/h 66 % 0 mm 0.0 W/m2 CLR
19:43 -12.2 °C -15.6 °C 34405.1 hPa North 68.6 km/h 68.6 km/h 66 % 0 mm 0.0 W/m2 CLR
19:48 -12.2 °C -15.6 °C 34405.1 hPa NW 74.5 km/h 74.5 km/h 66 % 0 mm 0.0 W/m2 CLR
19:53 -12.2 °C -15.6 °C 34405.1 hPa North 72.6 km/h 72.6 km/h 66 % 0 mm 0.0 W/m2 CLR
19:58 -12.2 °C -15.6 °C 34405.1 hPa NNW 68.6 km/h 68.6 km/h 66 % 0 mm 0.0 W/m2 CLR
20:03 -12.6 °C -15.9 °C 34405.1 hPa NW 59.5 km/h 59.5 km/h 66 % 0 mm 0.0 W/m2 CLR
20:08 -12.6 °C -15.8 °C 34405.1 hPa North 80.5 km/h 80.5 km/h 67 % 0 mm 0.0 W/m2 CLR
20:13 -12.6 °C -15.8 °C 34395 hPa NNW 69.8 km/h 69.8 km/h 67 % 0 mm 0.0 W/m2 CLR
20:18 -12.6 °C -15.8 °C 34405.1 hPa NNW 47.6 km/h 47.6 km/h 67 % 0 mm 0.0 W/m2 CLR
20:23 -12.6 °C -15.7 °C 34405.1 hPa NNW 89.3 km/h 89.3 km/h 68 % 0 mm 0.0 W/m2 CLR
20:28 -12.6 °C -15.7 °C 34405.1 hPa NW 59.5 km/h 59.5 km/h 68 % 0 mm 0.0 W/m2 CLR
20:33 -12.6 °C -15.7 °C 34405.1 hPa NNW 59.5 km/h 59.5 km/h 68 % 0 mm 0.0 W/m2 CLR
20:38 -12.6 °C -15.7 °C 34418.7 hPa NNW 77.4 km/h 77.4 km/h 68 % 0 mm 0.0 W/m2 CLR
20:43 -12.6 °C -15.5 °C 34418.7 hPa NNW 65.5 km/h 65.5 km/h 69 % 0 mm 0.0 W/m2 CLR
20:48 -12.6 °C -15.4 °C 34418.7 hPa NW 74.5 km/h 74.5 km/h 70 % 0 mm 0.0 W/m2 CLR
20:53 -12.6 °C -15.4 °C 34418.7 hPa NW 62.6 km/h 62.6 km/h 70 % 0 mm 0.0 W/m2 CLR
20:58 -12.6 °C -15.4 °C 34418.7 hPa NW 59.5 km/h 59.5 km/h 70 % 0 mm 0.0 W/m2 CLR
21:03 -12.6 °C -15.3 °C 34418.7 hPa NW 68.6 km/h 68.6 km/h 71 % 0 mm 0.0 W/m2 CLR
21:08 -12.8 °C -15.6 °C 34418.7 hPa NNW 80.5 km/h 80.5 km/h 71 % 0 mm 0.0 W/m2 CLR
21:13 -12.8 °C -15.6 °C 34418.7 hPa NW 65.5 km/h 65.5 km/h 71 % 0 mm 0.0 W/m2 CLR
21:18 -12.8 °C -15.6 °C 34418.7 hPa NW 47.6 km/h 47.6 km/h 71 % 0 mm 0.0 W/m2 CLR
21:23 -12.8 °C -15.6 °C 34418.7 hPa NW 68.6 km/h 68.6 km/h 71 % 0 mm 0.0 W/m2 CLR
21:28 -12.8 °C -15.6 °C 34418.7 hPa NNW 65.5 km/h 65.5 km/h 71 % 0 mm 0.0 W/m2 CLR
21:33 -12.8 °C -15.5 °C 34418.7 hPa WNW 74.5 km/h 74.5 km/h 72 % 0 mm 0.0 W/m2 CLR
21:38 -12.8 °C -15.5 °C 34418.7 hPa NW 75.2 km/h 75.2 km/h 72 % 0 mm 0.0 W/m2 CLR
21:43 -12.8 °C -15.5 °C 34405.1 hPa NW 59.5 km/h 59.5 km/h 72 % 0 mm 0.0 W/m2 CLR
21:48 -12.8 °C -15.5 °C 34405.1 hPa NW 74.5 km/h 74.5 km/h 72 % 0 mm 0.0 W/m2 CLR
21:53 -12.8 °C -15.5 °C 34405.1 hPa NW 80.5 km/h 80.5 km/h 72 % 0 mm 0.0 W/m2 CLR
22:03 -12.8 °C -15.5 °C 34405.1 hPa NNW 77.7 km/h 77.7 km/h 72 % 0 mm 0.0 W/m2 CLR
22:08 -12.8 °C -15.5 °C 34405.1 hPa NNW 77.4 km/h 77.4 km/h 72 % 0 mm 0.0 W/m2 CLR
22:13 -12.8 °C -15.5 °C 34395 hPa NNW 65.5 km/h 65.5 km/h 72 % 0 mm 0.0 W/m2 CLR
22:18 -13.2 °C -15.7 °C 34395 hPa NNW 77.7 km/h 77.7 km/h 73 % 0 mm 0.0 W/m2 CLR
22:23 -13.2 °C -15.7 °C 34395 hPa NW 53.6 km/h 53.6 km/h 73 % 0 mm 0.0 W/m2 CLR
22:28 -13.2 °C -15.7 °C 34395 hPa NW 65.5 km/h 65.5 km/h 73 % 0 mm 0.0 W/m2 CLR
22:33 -13.2 °C -15.8 °C 34395 hPa NNW 68.6 km/h 68.6 km/h 72 % 0 mm 0.0 W/m2 CLR
22:38 -13.2 °C -15.7 °C 34384.8 hPa NNW 80.5 km/h 80.5 km/h 73 % 0 mm 0.0 W/m2 CLR
22:43 -13.2 °C -15.7 °C 34384.8 hPa NNW 77.7 km/h 77.7 km/h 73 % 0 mm 0.0 W/m2 CLR
22:48 -13.2 °C -15.7 °C 34384.8 hPa NW 65.5 km/h 65.5 km/h 73 % 0 mm 0.0 W/m2 CLR
22:53 -13.2 °C -15.7 °C 34384.8 hPa WNW 65.5 km/h 65.5 km/h 73 % 0 mm 0.0 W/m2 CLR
22:58 -13.2 °C -15.8 °C 34384.8 hPa NW 71.5 km/h 71.5 km/h 72 % 0 mm 0.0 W/m2 CLR
23:03 -13.2 °C -15.8 °C 34384.8 hPa NW 68.6 km/h 68.6 km/h 72 % 0 mm 0.0 W/m2 CLR
23:08 -13.2 °C -15.8 °C 34371.3 hPa NW 65.5 km/h 65.5 km/h 72 % 0 mm 0.0 W/m2 CLR
23:13 -13.2 °C -15.8 °C 34371.3 hPa NW 80.3 km/h 80.3 km/h 72 % 0 mm 0.0 W/m2 CLR
23:18 -13.2 °C -15.8 °C 34371.3 hPa NW 51.8 km/h 51.8 km/h 72 % 0 mm 0.0 W/m2 CLR
23:23 -13.2 °C -15.8 °C 34371.3 hPa NW 64.7 km/h 64.7 km/h 72 % 0 mm 0.0 W/m2 CLR
23:28 -13.2 °C -15.8 °C 34371.3 hPa NW 53.6 km/h 53.6 km/h 72 % 0 mm 0.0 W/m2 CLR
23:33 -13.2 °C -15.8 °C 34371.3 hPa NW 71.5 km/h 71.5 km/h 72 % 0 mm 0.0 W/m2 CLR
23:38 -13.4 °C -16.1 °C 34361.1 hPa NW 69.8 km/h 69.8 km/h 72 % 0 mm 0.0 W/m2 CLR
23:43 -13.4 °C -16 °C 34361.1 hPa NW 83.4 km/h 83.4 km/h 73 % 0 mm 0.0 W/m2 CLR
23:48 -13.4 °C -16 °C 34361.1 hPa NW 68.6 km/h 68.6 km/h 73 % 0 mm 0.0 W/m2 CLR
23:53 -13.4 °C -16.1 °C 34361.1 hPa NW 50.7 km/h 50.7 km/h 72 % 0 mm 0.0 W/m2 CLR
23:58 -13.4 °C -16 °C 34371.3 hPa NW 44.7 km/h 44.7 km/h 73 % 0 mm 0.0 W/m2 CLR
Lo Temps de Massalio
Compliments of Weather Underground - 1.25 mb